Location: Staunton
(38.1490°N, 79.0720°W)
Time: 22:36:06
(UTC-04:00)

ISS - Pass Details

Date: 20 March 2018
Orbit: 403 x 408 km, 51.6° (Epoch: 26 September)

Event Time Altitude Azimuth Distance (km) Brightness Sun altitude
Exits shadow 04:45:29 11° 96° (E) 1,434 -0.4 -30.2°
Drops below altitude 10° 04:45:37 10° 97° (E) 1,480 -0.3 -30.1°
Enters shadow 05:48:48 -55° 312° (NW) 11,022 3.4 -18.5°
